NOAA 16 DEB

Satellite information

Favourite Embed

Satellite Type and Status

DEBRISIN ORBIT

Key statistics

Satellite NOAA 16 DEB at a glance.

Uptime

9118

Days in orbit

Revolutions

≈ 14.3

Per day

Orbit

SSO

Sun Synchronous Orbit

Inclination

98.7

Latest

Satellite identification and parameters

Extended collection of information and parameters for NOAA 16 DEB.

Object identification

Identified? True

Debris? True

Object name: NOAA 16 DEB

International designator: 2000-055RL

Object number (NORAD): 42368

Object ID (CCSDS): 42368

Country: UNITED STATES OF AMERICA (US)

Current information (Y/N): Y

RCS size: SMALL

Orbital parameters

Period: 100.944 minutes

Inclination: 98.7354 deg

SMA: 7181.461 km

Apoapsis: 812.768 km

Periapsis: 793.884 km

RAAN: 327.6473 deg

Eccentricy: 0.00131476

Argument of periapsis: 165.8638 deg

Mean anomaly: 194.2913 deg

Mean motion: 14.26538702 rev/day

Mean motion (dot): 0.00004932 rev/day2

B* drag term: 0.0020608286 1/REarth

Two-line elements (TLE)

Creation date: Sept. 8, 2025, 3:16 a.m.

Reference frame: TEME

Reference center: EARTH

Epoch: Sept. 7, 2025, 11:14 a.m. UTC

TLE line 0: 0 NOAA 16 DEB

TLE line 1: 1 42368U 00055RL 25250.46865981 .00004932 00000-0 20608-2 0 9990

TLE line 2: 2 42368 98.7354 327.6473 0013148 165.8638 194.2913 14.26538702486901

Live tracking on map

Real-time ground track for satellite NOAA 16 DEB.

In-orbit conjunctions

A list of the most updated potential collisions computed for object NOAA 16 DEB.

Target Orbit TCA Probability of collision Miss distance Type
NOAA 16 DEB SSO 2025-06-20 20:12:26 0.0001467486 240.0 (m) DEBRIS
PEGASUS R/B LEO 2024-08-02 14:06:01 0.0001431379 571.0 (m) ROCKET BODY

Associated space launch

The NOAA K, L and M POES satellites begin the fifth generation of improved environmental monitoring in support of NOAA missions. The instrument payload has significant improvements and additions/deletions. The instrument changes have effected the spacecraft subsystems and data formats.

NOAA 16 DEB was lifted into orbit during the mission ‘Titan II SLV | NOAA 16’, on board a Titan II SLV space rocket.

The launch took place on Sept. 21, 2000, 10:22 a.m. from Space Launch Complex 4W.

For more information about the launch, click the button.

Launch to space Titan II SLV | NOAA 16
Titan II SLV | NOAA 16

Agency: N/A

Status: Launch Successful

Launch date: Sept. 21, 2000, 10:22 a.m. UTC

Rocket: Titan II SLV

Launch pad: Space Launch Complex 4W

Location: Vandenberg SFB, CA, USA

...

Latest news about this satellite

There are no fresh news available about this satellite. Check back as we update our databases every day.


Newsletter sign-up

Weekly statistics, charts and insights to help you stay on top of the space industry.